64.7°F
Current conditions from King Hill
Updated every 5 minutes
 
  Tuesday September 2, 2014

Station Historical Data
Daily Summary for September 28, 2011 Units:  Metric    English   Both
« Previous Day
Next Day »
Daily Weekly Monthly Yearly Custom
  High: Low: Average:
Temperature: 22.4 °C 16.7 °C 19 °C
Dew Point: 16.4 °C 12.7 °C 14.6 °C
Humidity: 90% 66% 76%
Wind Speed: 11.3km/h 0km/h 3.2km/h
Wind Gust: 25.7km/h - -
Wind- - South
Pressure: 1015.1 hPa 1011.7 hPa -
Precipitation: 0 mm    
Historical Graphs
 
 
Tabular Data for September 28, 2011
Time Temperature Dew Point Pressure Wind Wind Speed Wind Gust Humidity Daily Rainfall
00:00 17.5 °C 15.7 °C 1014.4 hPa Calm   3.2 km/h 89% 0 mm
00:05 17.5 °C 15.8 °C 1014.4 hPa Calm   1.6 km/h 90% 0 mm
00:10 17.6 °C 15.7 °C 1014.4 hPa Calm   4.8 km/h 89% 0 mm
00:15 17.6 °C 15.8 °C 1014.4 hPa SSE 1.6 km/h 6.4 km/h 89% 0 mm
00:20 17.7 °C 15.9 °C 1014.4 hPa South 1.6 km/h 6.4 km/h 89% 0 mm
00:25 17.8 °C 15.8 °C 1014.4 hPa South 1.6 km/h 8 km/h 88% 0 mm
00:30 18 °C 15.8 °C 1014.4 hPa SSE 1.6 km/h 8 km/h 87% 0 mm
00:35 18.1 °C 15.9 °C 1014.4 hPa Calm   6.4 km/h 87% 0 mm
00:40 18.2 °C 15.8 °C 1014.4 hPa Calm   8 km/h 86% 0 mm
00:45 18.3 °C 15.7 °C 1014.4 hPa SSE 1.6 km/h 8 km/h 85% 0 mm
00:50 18.4 °C 15.7 °C 1014.4 hPa Calm   4.8 km/h 84% 0 mm
00:55 18.6 °C 15.6 °C 1014.4 hPa SSE 1.6 km/h 8 km/h 83% 0 mm
01:00 18.7 °C 15.6 °C 1014.4 hPa SSE 1.6 km/h 8 km/h 82% 0 mm
01:05 18.8 °C 15.5 °C 1014.4 hPa Calm   8 km/h 81% 0 mm
01:10 18.8 °C 15.5 °C 1014.4 hPa Calm   6.4 km/h 81% 0 mm
01:15 18.8 °C 15.3 °C 1014.4 hPa SSE 1.6 km/h 8 km/h 80% 0 mm
01:20 18.8 °C 15.3 °C 1014.1 hPa Calm   16.1 km/h 80% 0 mm
01:25 18.8 °C 15.1 °C 1014.1 hPa South 1.6 km/h 16.1 km/h 79% 0 mm
01:30 18.8 °C 15.1 °C 1014.4 hPa South 1.6 km/h 11.3 km/h 79% 0 mm
01:35 18.8 °C 15.1 °C 1014.4 hPa Calm   9.7 km/h 79% 0 mm
01:40 18.7 °C 15 °C 1014.1 hPa Calm   11.3 km/h 79% 0 mm
01:45 18.6 °C 14.9 °C 1014.1 hPa Calm   11.3 km/h 79% 0 mm
01:50 18.6 °C 14.7 °C 1014.4 hPa South 1.6 km/h 11.3 km/h 78% 0 mm
01:55 18.8 °C 14.9 °C 1014.4 hPa South 1.6 km/h 16.1 km/h 78% 0 mm
02:00 18.9 °C 14.8 °C 1014.4 hPa SSE 6.4 km/h 16.1 km/h 77% 0 mm
02:05 19.1 °C 14.9 °C 1014.4 hPa South 3.2 km/h 16.1 km/h 77% 0 mm
02:10 19 °C 14.7 °C 1014.4 hPa SSE 1.6 km/h 12.9 km/h 76% 0 mm
02:15 19.1 °C 14.9 °C 1014.4 hPa Calm   11.3 km/h 77% 0 mm
02:20 19 °C 14.7 °C 1014.1 hPa ESE 1.6 km/h 11.3 km/h 76% 0 mm
02:25 18.9 °C 14.6 °C 1014.4 hPa Calm   8 km/h 76% 0 mm
02:30 18.8 °C 14.7 °C 1014.1 hPa Calm   8 km/h 77% 0 mm
02:35 18.8 °C 14.7 °C 1014.1 hPa Calm   8 km/h 77% 0 mm
02:40 18.7 °C 14.6 °C 1014.1 hPa SSE 1.6 km/h 8 km/h 77% 0 mm
02:45 18.6 °C 14.4 °C 1014.1 hPa SSW 3.2 km/h 8 km/h 77% 0 mm
02:50 18.5 °C 14.6 °C 1014.1 hPa Calm   8 km/h 78% 0 mm
02:55 18.5 °C 14.6 °C 1014.1 hPa Calm   12.9 km/h 78% 0 mm
03:00 18.7 °C 14.6 °C 1014.1 hPa SSE 3.2 km/h 12.9 km/h 77% 0 mm
03:05 18.8 °C 14.7 °C 1014.1 hPa South 1.6 km/h 14.5 km/h 77% 0 mm
03:10 19 °C 14.9 °C 1014.1 hPa South 1.6 km/h 16.1 km/h 77% 0 mm
03:15 19.2 °C 14.8 °C 1014.1 hPa South 4.8 km/h 20.9 km/h 76% 0 mm
03:20 19.2 °C 14.9 °C 1014.1 hPa SW 1.6 km/h 20.9 km/h 76% 0 mm
03:25 19.2 °C 14.9 °C 1014.1 hPa SSW 1.6 km/h 12.9 km/h 76% 0 mm
03:30 19.2 °C 14.8 °C 1014.1 hPa SSW 3.2 km/h 19.3 km/h 76% 0 mm
03:40 19.2 °C 14.8 °C 1014.1 hPa Calm   16.1 km/h 76% 0 mm
03:45 19.1 °C 14.8 °C 1014.1 hPa SSW 3.2 km/h 24.1 km/h 76% 0 mm
03:50 19.1 °C 14.7 °C 1014.1 hPa South 3.2 km/h 24.1 km/h 76% 0 mm
03:55 19.1 °C 14.7 °C 1013.8 hPa South 4.8 km/h 17.7 km/h 76% 0 mm
04:00 19 °C 14.7 °C 1014.1 hPa SSW 1.6 km/h 17.7 km/h 76% 0 mm
04:05 19.1 °C 14.7 °C 1014.1 hPa South 3.2 km/h 17.7 km/h 76% 0 mm
04:10 19.1 °C 14.7 °C 1014.1 hPa South 3.2 km/h 17.7 km/h 76% 0 mm
04:15 19.1 °C 14.7 °C 1014.1 hPa Calm   12.9 km/h 76% 0 mm
04:20 18.9 °C 14.6 °C 1014.1 hPa SSW 3.2 km/h 9.7 km/h 76% 0 mm
04:30 18.7 °C 14.6 °C 1013.8 hPa SSW 1.6 km/h 14.5 km/h 77% 0 mm
04:35 18.6 °C 14.5 °C 1013.8 hPa South 1.6 km/h 14.5 km/h 77% 0 mm
04:40 18.6 °C 14.4 °C 1014.1 hPa South 3.2 km/h 12.9 km/h 77% 0 mm
04:45 18.5 °C 14.6 °C 1014.1 hPa South 1.6 km/h 12.9 km/h 78% 0 mm
04:50 18.4 °C 14.5 °C 1014.1 hPa Calm   9.7 km/h 78% 0 mm
04:55 18.3 °C 14.4 °C 1014.1 hPa Calm   8 km/h 78% 0 mm
05:00 18.2 °C 14.5 °C 1014.1 hPa South 3.2 km/h 11.3 km/h 79% 0 mm
05:05 18.1 °C 14.6 °C 1013.8 hPa Calm   11.3 km/h 80% 0 mm
05:10 18 °C 14.5 °C 1013.8 hPa Calm   6.4 km/h 80% 0 mm
05:15 17.9 °C 14.4 °C 1014.1 hPa SW 1.6 km/h 8 km/h 80% 0 mm
05:20 17.8 °C 14.3 °C 1014.1 hPa Calm   8 km/h 80% 0 mm
05:25 17.8 °C 14.5 °C 1013.8 hPa Calm   11.3 km/h 81% 0 mm
05:30 17.7 °C 14.4 °C 1013.8 hPa South 3.2 km/h 11.3 km/h 81% 0 mm
05:35 17.8 °C 14.5 °C 1013.8 hPa SSW 1.6 km/h 11.3 km/h 81% 0 mm
05:40 17.8 °C 14.3 °C 1013.8 hPa SSW 3.2 km/h 14.5 km/h 80% 0 mm
05:45 17.7 °C 14.4 °C 1013.8 hPa Calm   14.5 km/h 81% 0 mm
05:50 17.7 °C 14.4 °C 1013.8 hPa Calm   11.3 km/h 81% 0 mm
05:55 17.6 °C 14.3 °C 1013.8 hPa SSW 3.2 km/h 17.7 km/h 81% 0 mm
06:00 17.6 °C 14.3 °C 1013.8 hPa South 1.6 km/h 17.7 km/h 81% 0 mm
06:05 17.6 °C 14.3 °C 1013.8 hPa Calm   17.7 km/h 81% 0 mm
06:10 17.6 °C 14.3 °C 1013.8 hPa South 4.8 km/h 16.1 km/h 81% 0 mm
06:15 17.6 °C 14.3 °C 1014.1 hPa Calm   16.1 km/h 81% 0 mm
06:20 17.6 °C 14.3 °C 1014.1 hPa SSW 4.8 km/h 14.5 km/h 81% 0 mm
06:25 17.6 °C 14.3 °C 1014.1 hPa Calm   14.5 km/h 81% 0 mm
06:30 17.6 °C 14.3 °C 1014.1 hPa SSW 4.8 km/h 14.5 km/h 81% 0 mm
06:35 17.6 °C 14.3 °C 1014.1 hPa SSW 3.2 km/h 14.5 km/h 81% 0 mm
06:45 17.5 °C 14.2 °C 1014.1 hPa SSW 4.8 km/h 14.5 km/h 81% 0 mm
06:55 17.5 °C 14 °C 1014.1 hPa SSW 4.8 km/h 19.3 km/h 80% 0 mm
07:00 17.6 °C 14.1 °C 1014.1 hPa South 6.4 km/h 19.3 km/h 80% 0 mm
07:05 17.6 °C 14.1 °C 1014.4 hPa SSE 1.6 km/h 19.3 km/h 80% 0 mm
07:10 17.6 °C 14.1 °C 1014.4 hPa South 3.2 km/h 12.9 km/h 80% 0 mm
07:15 17.6 °C 14.1 °C 1014.4 hPa SSW 3.2 km/h 14.5 km/h 80% 0 mm
07:20 17.6 °C 13.9 °C 1014.4 hPa SSW 6.4 km/h 20.9 km/h 79% 0 mm
07:25 17.7 °C 14.1 °C 1014.4 hPa SSW 3.2 km/h 20.9 km/h 79% 0 mm
07:30 17.7 °C 14.1 °C 1014.4 hPa South 1.6 km/h 14.5 km/h 79% 0 mm
07:35 17.8 °C 14.1 °C 1014.4 hPa SSW 4.8 km/h 17.7 km/h 79% 0 mm
07:40 17.8 °C 13.9 °C 1014.8 hPa SSW 4.8 km/h 19.3 km/h 78% 0 mm
07:45 17.9 °C 14.3 °C 1014.8 hPa SSW 1.6 km/h 19.3 km/h 79% 0 mm
07:50 17.9 °C 14.1 °C 1014.8 hPa SSW 1.6 km/h 14.5 km/h 78% 0 mm
07:55 17.9 °C 14.1 °C 1014.8 hPa SSW 3.2 km/h 16.1 km/h 78% 0 mm
08:00 17.9 °C 14.1 °C 1014.8 hPa SSW 1.6 km/h 16.1 km/h 78% 0 mm
08:05 17.9 °C 14.1 °C 1014.8 hPa Calm   16.1 km/h 78% 0 mm
08:15 17.9 °C 14 °C 1014.8 hPa SSW 3.2 km/h 22.5 km/h 78% 0 mm
08:20 17.9 °C 14 °C 1014.8 hPa South 1.6 km/h 22.5 km/h 78% 0 mm
08:25 17.9 °C 14 °C 1014.8 hPa South 3.2 km/h 17.7 km/h 78% 0 mm
08:35 18 °C 13.9 °C 1015.1 hPa SSW 4.8 km/h 16.1 km/h 77% 0 mm
08:40 18.1 °C 14.2 °C 1014.8 hPa South 4.8 km/h 16.1 km/h 78% 0 mm
08:45 18.1 °C 14 °C 1014.8 hPa South 3.2 km/h 16.1 km/h 77% 0 mm
08:50 18.2 °C 14.1 °C 1014.8 hPa SSW 1.6 km/h 16.1 km/h 77% 0 mm
08:55 18.2 °C 14.1 °C 1015.1 hPa SSW 6.4 km/h 20.9 km/h 77% 0 mm
09:00 18.2 °C 14.1 °C 1015.1 hPa Calm   20.9 km/h 77% 0 mm
09:05 18.2 °C 14.1 °C 1015.1 hPa South 1.6 km/h 16.1 km/h 77% 0 mm
09:10 18.3 °C 14.2 °C 1015.1 hPa South 6.4 km/h 16.1 km/h 77% 0 mm
09:15 18.3 °C 14.2 °C 1015.1 hPa South 11.3 km/h 24.1 km/h 77% 0 mm
09:20 18.4 °C 14.3 °C 1015.1 hPa Calm   24.1 km/h 77% 0 mm
09:25 18.5 °C 14.4 °C 1015.1 hPa SSE 1.6 km/h 19.3 km/h 77% 0 mm
09:30 18.6 °C 14.4 °C 1015.1 hPa South 6.4 km/h 14.5 km/h 77% 0 mm
09:35 18.7 °C 14.4 °C 1015.1 hPa SSW 3.2 km/h 14.5 km/h 76% 0 mm
09:45 19.1 °C 14.8 °C 1015.1 hPa Calm   14.5 km/h 76% 0 mm
09:50 19.2 °C 14.9 °C 1015.1 hPa SSW 4.8 km/h 14.5 km/h 76% 0 mm
09:55 19.4 °C 14.8 °C 1015.1 hPa South 1.6 km/h 14.5 km/h 75% 0 mm
10:00 19.7 °C 15.1 °C 1015.1 hPa SSE 8 km/h 19.3 km/h 75% 0 mm
10:05 19.7 °C 15.1 °C 1015.1 hPa South 6.4 km/h 19.3 km/h 75% 0 mm
10:10 19.9 °C 15.4 °C 1015.1 hPa SSW 3.2 km/h 16.1 km/h 75% 0 mm
10:15 20.2 °C 15.2 °C 1015.1 hPa South 8 km/h 17.7 km/h 73% 0 mm
10:20 20.4 °C 15.7 °C 1015.1 hPa SSE 1.6 km/h 17.7 km/h 74% 0 mm
10:25 20.5 °C 15.3 °C 1015.1 hPa SW 3.2 km/h 19.3 km/h 72% 0 mm
10:30 20.4 °C 15.4 °C 1015.1 hPa SSE 1.6 km/h 19.3 km/h 73% 0 mm
10:40 20.4 °C 15.6 °C 1015.1 hPa Calm   19.3 km/h 74% 0 mm
10:45 20.4 °C 15.4 °C 1015.1 hPa Calm   17.7 km/h 73% 0 mm
10:50 20.5 °C 15.7 °C 1015.1 hPa South 1.6 km/h 17.7 km/h 74% 0 mm
10:55 21.1 °C 16.4 °C 1015.1 hPa SSE 4.8 km/h 16.1 km/h 75% 0 mm
11:00 21.5 °C 16 °C 1015.1 hPa SSW 6.4 km/h 17.7 km/h 71% 0 mm
11:10 21.4 °C 15.7 °C 1015.1 hPa SSW 4.8 km/h 17.7 km/h 70% 0 mm
11:15 21.1 °C 15.2 °C 1015.1 hPa SSW 9.7 km/h 24.1 km/h 69% 0 mm
11:20 20.6 °C 15.1 °C 1015.1 hPa SSW 6.4 km/h 24.1 km/h 71% 0 mm
11:25 20.4 °C 15.4 °C 1015.1 hPa SSW 6.4 km/h 24.1 km/h 73% 0 mm
11:30 20.5 °C 15.5 °C 1015.1 hPa South 3.2 km/h 24.1 km/h 73% 0 mm
11:35 20.8 °C 16 °C 1015.1 hPa South 3.2 km/h 16.1 km/h 74% 0 mm
11:45 21.5 °C 15.3 °C 1014.8 hPa SSW 9.7 km/h 25.7 km/h 68% 0 mm
11:50 21.7 °C 15.7 °C 1014.8 hPa South 1.6 km/h 25.7 km/h 69% 0 mm
11:55 21.7 °C 15.7 °C 1014.8 hPa South 1.6 km/h 17.7 km/h 69% 0 mm
12:00 21.6 °C 15.6 °C 1014.8 hPa SSE 4.8 km/h 17.7 km/h 69% 0 mm
12:05 21.7 °C 15.7 °C 1014.8 hPa SSW 4.8 km/h 17.7 km/h 69% 0 mm
12:10 21.9 °C 16.2 °C 1014.8 hPa Calm   17.7 km/h 70% 0 mm
12:20 22.4 °C 15.7 °C 1014.8 hPa SSW 11.3 km/h 17.7 km/h 66% 0 mm
12:25 21.9 °C 16 °C 1014.8 hPa SW 4.8 km/h 17.7 km/h 69% 0 mm
12:35 21.8 °C 15.7 °C 1014.8 hPa SW 3.2 km/h 12.9 km/h 68% 0 mm
12:40 21.9 °C 15.7 °C 1014.8 hPa SSE 3.2 km/h 16.1 km/h 68% 0 mm
12:45 21.8 °C 16.3 °C 1014.4 hPa Calm   16.1 km/h 71% 0 mm
12:50 21.8 °C 15.6 °C 1014.4 hPa SW 4.8 km/h 12.9 km/h 68% 0 mm
12:55 21.7 °C 15.7 °C 1014.4 hPa SSW 4.8 km/h 16.1 km/h 69% 0 mm
13:00 21.7 °C 16.2 °C 1014.4 hPa Calm   16.1 km/h 71% 0 mm
13:05 21.6 °C 15.6 °C 1014.4 hPa SSW 3.2 km/h 12.9 km/h 69% 0 mm
13:10 21.5 °C 16.2 °C 1014.1 hPa SW 3.2 km/h 14.5 km/h 72% 0 mm
13:15 21.3 °C 15.2 °C 1014.1 hPa SE 4.8 km/h 16.1 km/h 68% 0 mm
13:25 21.4 °C 15.2 °C 1014.1 hPa SSW 9.7 km/h 12.9 km/h 68% 0 mm
13:35 21.2 °C 15.3 °C 1013.8 hPa SSW 3.2 km/h 17.7 km/h 69% 0 mm
13:40 21.1 °C 15.4 °C 1014.1 hPa SSW 3.2 km/h 17.7 km/h 70% 0 mm
13:45 20.9 °C 15 °C 1013.8 hPa SW 1.6 km/h 14.5 km/h 69% 0 mm
13:50 20.8 °C 15.6 °C 1013.8 hPa South 3.2 km/h 14.5 km/h 72% 0 mm
13:55 20.6 °C 14.9 °C 1013.8 hPa SSW 4.8 km/h 16.1 km/h 70% 0 mm
14:00 20.2 °C 14.8 °C 1013.8 hPa SW 3.2 km/h 16.1 km/h 71% 0 mm
14:05 20.1 °C 14.8 °C 1013.8 hPa Calm   12.9 km/h 72% 0 mm
14:10 19.9 °C 14.7 °C 1013.8 hPa SSW 1.6 km/h 12.9 km/h 72% 0 mm
14:15 19.8 °C 15.1 °C 1013.8 hPa Calm   12.9 km/h 74% 0 mm
14:20 19.9 °C 15.1 °C 1013.4 hPa Calm   3.2 km/h 74% 0 mm
14:25 20 °C 15.2 °C 1013.4 hPa Calm   8 km/h 74% 0 mm
14:30 20.2 °C 15.2 °C 1013.4 hPa SSE 1.6 km/h 8 km/h 73% 0 mm
14:40 20.6 °C 15.6 °C 1013.4 hPa Calm   9.7 km/h 73% 0 mm
14:45 20.7 °C 15.4 °C 1013.4 hPa South 4.8 km/h 11.3 km/h 72% 0 mm
14:50 20.7 °C 15.7 °C 1013.1 hPa Calm   11.3 km/h 73% 0 mm
14:55 20.8 °C 15.8 °C 1013.1 hPa SSW 1.6 km/h 8 km/h 73% 0 mm
15:00 21 °C 16 °C 1013.1 hPa Calm   8 km/h 73% 0 mm
15:05 21.2 °C 16 °C 1013.1 hPa ESE 1.6 km/h 9.7 km/h 72% 0 mm
15:10 21.4 °C 16.2 °C 1013.1 hPa Calm   12.9 km/h 72% 0 mm
15:15 21.4 °C 15.5 °C 1013.1 hPa South 3.2 km/h 16.1 km/h 69% 0 mm
15:20 21.4 °C 15.5 °C 1013.1 hPa South 3.2 km/h 16.1 km/h 69% 0 mm
15:30 21.6 °C 15.8 °C 1013.1 hPa South 3.2 km/h 11.3 km/h 70% 0 mm
15:40 21.4 °C 15.8 °C 1012.8 hPa SSW 3.2 km/h 14.5 km/h 70% 0 mm
15:45 21.3 °C 15.7 °C 1012.8 hPa Calm   17.7 km/h 70% 0 mm
15:50 21.2 °C 15.3 °C 1013.1 hPa South 6.4 km/h 19.3 km/h 69% 0 mm
15:55 21.1 °C 15.4 °C 1012.8 hPa Calm   19.3 km/h 70% 0 mm
16:00 21.1 °C 15.6 °C 1012.8 hPa Calm   16.1 km/h 71% 0 mm
16:05 21 °C 15.3 °C 1012.8 hPa Calm   11.3 km/h 70% 0 mm
16:10 20.9 °C 15.1 °C 1012.8 hPa SSW 1.6 km/h 11.3 km/h 69% 0 mm
16:15 21.2 °C 15.3 °C 1012.8 hPa South 6.4 km/h 14.5 km/h 69% 0 mm
16:25 21.4 °C 15 °C 1012.8 hPa Calm   14.5 km/h 67% 0 mm
16:30 21.4 °C 15.3 °C 1012.8 hPa ESE 1.6 km/h 16.1 km/h 68% 0 mm
16:35 21.4 °C 15.2 °C 1012.8 hPa Calm   16.1 km/h 68% 0 mm
16:40 21.4 °C 15.7 °C 1012.8 hPa SSE 1.6 km/h 12.9 km/h 70% 0 mm
16:45 21.3 °C 15.4 °C 1012.8 hPa SSW 1.6 km/h 14.5 km/h 69% 0 mm
16:55 21.2 °C 15.1 °C 1012.8 hPa South 1.6 km/h 17.7 km/h 68% 0 mm
17:00 21.1 °C 15.4 °C 1012.8 hPa Calm   19.3 km/h 70% 0 mm
17:05 20.9 °C 15.1 °C 1012.8 hPa Calm   19.3 km/h 69% 0 mm
17:10 20.8 °C 14.9 °C 1012.8 hPa South 3.2 km/h 12.9 km/h 69% 0 mm
17:15 20.7 °C 14.8 °C 1012.8 hPa South 1.6 km/h 12.9 km/h 69% 0 mm
17:20 20.5 °C 14.6 °C 1012.8 hPa Calm   17.7 km/h 69% 0 mm
17:25 20.4 °C 14.9 °C 1012.8 hPa Calm   17.7 km/h 71% 0 mm
17:35 20 °C 14.6 °C 1012.8 hPa South 1.6 km/h 9.7 km/h 71% 0 mm
17:40 19.8 °C 14.7 °C 1012.8 hPa SSE 3.2 km/h 12.9 km/h 72% 0 mm
17:45 19.7 °C 14.6 °C 1012.8 hPa Calm   12.9 km/h 72% 0 mm
17:50 19.6 °C 14.4 °C 1012.8 hPa SSE 3.2 km/h 12.9 km/h 72% 0 mm
17:55 19.6 °C 14.4 °C 1012.8 hPa Calm   12.9 km/h 72% 0 mm
18:00 19.5 °C 14.6 °C 1012.8 hPa SSW 1.6 km/h 9.7 km/h 73% 0 mm
18:05 19.4 °C 14.3 °C 1012.8 hPa South 1.6 km/h 9.7 km/h 72% 0 mm
18:10 19.4 °C 14.2 °C 1012.8 hPa SSE 3.2 km/h 11.3 km/h 72% 0 mm
18:15 19.3 °C 14.2 °C 1012.8 hPa South 1.6 km/h 11.3 km/h 72% 0 mm
18:20 19.2 °C 14.3 °C 1012.8 hPa South 1.6 km/h 11.3 km/h 73% 0 mm
18:25 19.2 °C 14.2 °C 1012.8 hPa Calm   9.7 km/h 73% 0 mm
18:30 19.1 °C 13.9 °C 1012.8 hPa SSW 1.6 km/h 12.9 km/h 72% 0 mm
18:35 19 °C 14.1 °C 1012.8 hPa South 1.6 km/h 12.9 km/h 73% 0 mm
18:40 18.9 °C 13.8 °C 1012.4 hPa Calm   11.3 km/h 72% 0 mm
18:45 18.9 °C 14 °C 1012.4 hPa Calm   8 km/h 73% 0 mm
18:50 18.9 °C 14.4 °C 1012.4 hPa Calm   8 km/h 75% 0 mm
19:00 18.7 °C 14 °C 1012.8 hPa Calm   9.7 km/h 74% 0 mm
19:05 18.6 °C 13.9 °C 1012.4 hPa Calm   3.2 km/h 74% 0 mm
19:10 18.5 °C 13.8 °C 1012.4 hPa SSE 3.2 km/h 9.7 km/h 74% 0 mm
19:15 18.4 °C 13.7 °C 1012.4 hPa Calm   9.7 km/h 74% 0 mm
19:20 18.4 °C 13.7 °C 1012.4 hPa SSE 1.6 km/h 11.3 km/h 74% 0 mm
19:25 18.3 °C 13.6 °C 1012.4 hPa Calm   11.3 km/h 74% 0 mm
19:30 18.2 °C 13.7 °C 1012.4 hPa SSE 3.2 km/h 8 km/h 75% 0 mm
19:35 18.1 °C 13.6 °C 1012.4 hPa SSE 1.6 km/h 9.7 km/h 75% 0 mm
19:40 18.1 °C 13.6 °C 1012.4 hPa SSE 1.6 km/h 11.3 km/h 75% 0 mm
19:45 18.1 °C 13.6 °C 1012.4 hPa SSE 1.6 km/h 11.3 km/h 75% 0 mm
19:50 18 °C 13.9 °C 1012.4 hPa Calm   12.9 km/h 77% 0 mm
19:55 17.9 °C 13.4 °C 1012.4 hPa Calm   12.9 km/h 75% 0 mm
20:00 17.8 °C 13.6 °C 1012.4 hPa Calm   4.8 km/h 76% 0 mm
20:10 17.7 °C 13.4 °C 1012.4 hPa Calm   14.5 km/h 76% 0 mm
20:15 17.8 °C 13.3 °C 1012.4 hPa SSE 1.6 km/h 14.5 km/h 75% 0 mm
20:20 17.8 °C 13.3 °C 1012.4 hPa Calm   12.9 km/h 75% 0 mm
20:25 17.8 °C 13.3 °C 1012.1 hPa Calm   12.9 km/h 75% 0 mm
20:30 17.8 °C 13.3 °C 1012.4 hPa South 1.6 km/h 12.9 km/h 75% 0 mm
20:35 17.8 °C 13.3 °C 1012.4 hPa Calm   14.5 km/h 75% 0 mm
20:45 17.7 °C 13.2 °C 1012.4 hPa Calm   1.6 km/h 75% 0 mm
20:50 17.6 °C 13.1 °C 1012.4 hPa SSE 3.2 km/h 14.5 km/h 75% 0 mm
20:55 17.6 °C 13.1 °C 1012.4 hPa Calm   14.5 km/h 75% 0 mm
21:00 17.5 °C 13 °C 1012.4 hPa Calm   1.6 km/h 75% 0 mm
21:05 17.4 °C 12.9 °C 1012.4 hPa SSE 1.6 km/h 6.4 km/h 75% 0 mm
21:10 17.3 °C 12.9 °C 1012.1 hPa SSE 1.6 km/h 8 km/h 75% 0 mm
21:15 17.3 °C 13 °C 1012.4 hPa Calm   8 km/h 76% 0 mm
21:20 17.3 °C 13.2 °C 1012.4 hPa Calm   1.6 km/h 77% 0 mm
21:30 17.1 °C 12.8 °C 1012.4 hPa SSE 1.6 km/h 8 km/h 76% 0 mm
21:35 17 °C 12.9 °C 1012.1 hPa SSE 1.6 km/h 12.9 km/h 77% 0 mm
21:40 17 °C 12.7 °C 1012.1 hPa Calm   12.9 km/h 76% 0 mm
21:45 17.1 °C 13 °C 1012.4 hPa SE 1.6 km/h 11.3 km/h 77% 0 mm
21:50 17.1 °C 12.8 °C 1012.4 hPa Calm   11.3 km/h 76% 0 mm
21:55 17.1 °C 13.1 °C 1012.4 hPa Calm   6.4 km/h 77% 0 mm
22:00 16.9 °C 12.9 °C 1012.1 hPa Calm   3.2 km/h 77% 0 mm
22:05 16.8 °C 13 °C 1012.1 hPa Calm   3.2 km/h 78% 0 mm
22:10 16.7 °C 12.9 °C 1012.1 hPa Calm   1.6 km/h 78% 0 mm
22:15 16.7 °C 13 °C 1012.1 hPa Calm   8 km/h 79% 0 mm
22:20 16.7 °C 12.8 °C 1012.1 hPa SSE 1.6 km/h 8 km/h 78% 0 mm
22:25 16.7 °C 12.7 °C 1012.1 hPa SSE 1.6 km/h 11.3 km/h 77% 0 mm
22:30 16.8 °C 12.8 °C 1012.1 hPa Calm   11.3 km/h 77% 0 mm
22:35 16.9 °C 12.7 °C 1012.1 hPa SSE 1.6 km/h 11.3 km/h 76% 0 mm
22:40 17.1 °C 12.8 °C 1012.1 hPa SSE 1.6 km/h 11.3 km/h 76% 0 mm
22:45 17.2 °C 12.9 °C 1012.1 hPa Calm   11.3 km/h 76% 0 mm
22:50 17.3 °C 12.9 °C 1012.1 hPa ESE 4.8 km/h 19.3 km/h 75% 0 mm
22:55 17.4 °C 12.9 °C 1012.1 hPa Calm   19.3 km/h 75% 0 mm
23:00 17.4 °C 12.9 °C 1012.1 hPa Calm   11.3 km/h 75% 0 mm
23:05 17.3 °C 12.9 °C 1012.1 hPa Calm   17.7 km/h 75% 0 mm
23:10 17.3 °C 13.1 °C 1012.1 hPa SE 3.2 km/h 17.7 km/h 76% 0 mm
23:15 17.3 °C 12.9 °C 1011.7 hPa South 3.2 km/h 17.7 km/h 75% 0 mm
23:20 17.4 °C 12.9 °C 1012.1 hPa SSE 3.2 km/h 17.7 km/h 75% 0 mm
23:25 17.4 °C 12.9 °C 1011.7 hPa South 1.6 km/h 19.3 km/h 75% 0 mm
23:30 17.4 °C 12.9 °C 1011.7 hPa SSE 3.2 km/h 19.3 km/h 75% 0 mm
23:35 17.4 °C 12.9 °C 1011.7 hPa South 1.6 km/h 12.9 km/h 75% 0 mm
23:40 17.4 °C 12.9 °C 1011.7 hPa SSW 3.2 km/h 16.1 km/h 75% 0 mm
23:45 17.4 °C 12.9 °C 1011.7 hPa SSW 1.6 km/h 16.1 km/h 75% 0 mm
23:50 17.4 °C 12.9 °C 1011.7 hPa South 6.4 km/h 19.3 km/h 75% 0 mm
23:55 17.4 °C 12.9 °C 1011.7 hPa SSW 3.2 km/h 19.3 km/h 75% 0 mm
Westford Weather
Compliments of Weather Underground

 
 
Current Radar Loop:

Copyright © WestfordWeather.net 2007-2014. All rights reserved.